timestamp,surface_pressure_avg,surface_temp_avg,battery_voltage,lat,long
2018-09-06 00:00:00+00:00,251.5047,18.2,13.05,47.84626,-54.09684
2018-09-06 00:10:00+00:00,242.6714,18.2,13.05,47.84626,-54.09684
2018-09-06 00:20:00+00:00,237.193,18.2,13.05,47.84626,-54.09684
2018-09-06 00:30:00+00:00,238.263,18.19,13.13,47.84626,-54.09684
2018-09-06 00:40:00+00:00,234.6864,18.17,13.13,47.84626,-54.09684
2018-09-06 00:50:00+00:00,228.5514,18.16,13.13,47.84626,-54.09684
2018-09-06 01:00:00+00:00,225.218,18.17,13.05,47.84626,-54.09684
2018-09-06 01:10:00+00:00,224.4032,18.14,12.97,47.84626,-54.09684
2018-09-06 01:20:00+00:00,219.4698,18.13,13.05,47.84626,-54.09684
2018-09-06 01:30:00+00:00,216.6647,18.14,13.05,47.84626,-54.09684
2018-09-06 01:40:00+00:00,219.233,18.15,13.13,47.84626,-54.09684
2018-09-06 01:50:00+00:00,219.5681,18.16,13.13,47.84626,-54.09684
2018-09-06 02:00:00+00:00,214.6331,18.13,13.05,47.84626,-54.09684
2018-09-06 02:10:00+00:00,211.0681,18.1,12.97,47.84626,-54.09684
2018-09-06 02:20:00+00:00,213.3348,18.1,13.05,47.84626,-54.09684
2018-09-06 02:30:00+00:00,212.3731,18.1,13.05,47.84626,-54.09684
2018-09-06 02:40:00+00:00,206.8431,18.1,13.05,47.84626,-54.09684
2018-09-06 02:50:00+00:00,208.1297,18.1,13.05,47.84626,-54.09684
2018-09-06 03:00:00+00:00,210.4898,18.1,13.05,47.84626,-54.09684
2018-09-06 03:10:00+00:00,209.5414,18.1,12.97,47.84626,-54.09684
2018-09-06 03:20:00+00:00,213.5347,18.1,13.05,47.84626,-54.09684
2018-09-06 03:30:00+00:00,218.1163,18.1,13.05,47.84626,-54.09684
2018-09-06 03:40:00+00:00,218.1781,18.1,13.05,47.84626,-54.09684
2018-09-06 03:50:00+00:00,223.1031,18.09,13.05,47.84626,-54.09684
2018-09-06 04:00:00+00:00,229.4564,18.08,13.05,47.84626,-54.09684
2018-09-06 04:10:00+00:00,228.6913,18.07,12.97,47.84626,-54.09684
2018-09-06 04:20:00+00:00,229.9398,18.05,13.05,47.84626,-54.09684
2018-09-06 04:30:00+00:00,237.0764,18.0,13.05,47.84626,-54.09684
2018-09-06 04:40:00+00:00,242.9231,18.0,13.05,47.84626,-54.09684
2018-09-06 04:50:00+00:00,247.8264,18.0,13.05,47.84626,-54.09684
2018-09-06 05:00:00+00:00,252.4797,18.0,12.97,47.84626,-54.09684
2018-09-06 05:10:00+00:00,259.0814,18.0,12.97,47.84626,-54.09684
2018-09-06 05:20:00+00:00,264.9465,18.0,12.97,47.84626,-54.09684
2018-09-06 05:30:00+00:00,269.8748,17.98,12.97,47.84626,-54.09684
2018-09-06 05:40:00+00:00,277.5847,17.95,13.05,47.84626,-54.09684
2018-09-06 05:50:00+00:00,282.0663,17.96,13.05,47.84626,-54.09684
2018-09-06 06:00:00+00:00,283.3147,17.95,12.97,47.84626,-54.09684
2018-09-06 06:10:00+00:00,287.1281,17.9,12.89,47.84626,-54.09684
2018-09-06 06:20:00+00:00,294.3113,17.9,12.97,47.84626,-54.09684
2018-09-06 06:30:00+00:00,296.9582,17.9,12.97,47.84626,-54.09684
2018-09-06 06:40:00+00:00,298.6112,17.9,13.05,47.84626,-54.09684
2018-09-06 06:50:00+00:00,301.3197,17.89,13.05,47.84626,-54.09684
2018-09-06 07:00:00+00:00,307.6213,17.88,12.97,47.84626,-54.09684
2018-09-06 07:10:00+00:00,310.6214,17.82,12.89,47.84626,-54.09684
2018-09-06 07:20:00+00:00,312.228,17.8,12.97,47.84626,-54.09684
2018-09-06 07:30:00+00:00,315.7014,17.8,12.97,47.84626,-54.09684
2018-09-06 07:40:00+00:00,321.7664,17.8,12.97,47.84626,-54.09684
2018-09-06 07:50:00+00:00,322.1829,17.8,12.97,47.84626,-54.09684
2018-09-06 08:00:00+00:00,318.7897,17.8,12.97,47.84626,-54.09684
2018-09-06 08:10:00+00:00,318.9196,17.8,12.89,47.84626,-54.09684
2018-09-06 08:20:00+00:00,324.238,17.8,12.97,47.84626,-54.09684
2018-09-06 08:30:00+00:00,321.6464,17.86,12.97,47.84626,-54.09684
2018-09-06 08:40:00+00:00,314.6513,17.89,12.97,47.84626,-54.09684
2018-09-06 08:50:00+00:00,314.4147,17.89,12.97,47.84626,-54.09684
2018-09-06 09:00:00+00:00,316.6046,17.89,12.97,47.84626,-54.09684
2018-09-06 09:10:00+00:00,311.398,17.9,12.89,47.84626,-54.09684
2018-09-06 09:20:00+00:00,303.628,17.89,12.97,47.84626,-54.09684
2018-09-06 09:30:00+00:00,301.4146,17.86,12.97,47.84626,-54.09684
2018-09-06 09:40:00+00:00,303.1462,17.83,13.21,47.84626,-54.09684
2018-09-06 09:50:00+00:00,299.6481,17.87,13.21,47.84626,-54.09684
2018-09-06 10:00:00+00:00,290.188,17.87,13.13,47.84626,-54.09684
2018-09-06 10:10:00+00:00,282.2413,17.81,13.05,47.84626,-54.09684
2018-09-06 10:20:00+00:00,280.873,17.8,13.13,47.84626,-54.09684
2018-09-06 10:30:00+00:00,277.7781,17.8,13.37,47.84626,-54.09684
2018-09-06 10:40:00+00:00,267.6564,17.8,13.6,47.84626,-54.09684
2018-09-06 10:50:00+00:00,261.2213,17.8,13.68,47.84626,-54.09684
2018-09-06 11:00:00+00:00,260.5998,17.8,13.6,47.84626,-54.09684
2018-09-06 11:10:00+00:00,252.2381,17.81,13.44,47.84626,-54.09684
2018-09-06 11:20:00+00:00,243.0514,17.83,13.44,47.84626,-54.09684
2018-09-06 11:30:00+00:00,240.5215,17.83,13.44,47.84626,-54.09684
2018-09-06 11:40:00+00:00,239.9014,17.82,13.6,47.84626,-54.09684
2018-09-06 11:50:00+00:00,235.618,17.81,13.76,47.84626,-54.09684
2018-09-06 12:00:00+00:00,227.6798,17.83,13.68,47.84626,-54.09684
2018-09-06 12:10:00+00:00,222.0231,17.85,13.53,47.84626,-54.09684
2018-09-06 12:20:00+00:00,220.7665,17.85,13.6,47.84626,-54.09684
2018-09-06 12:30:00+00:00,219.3998,17.86,13.53,47.84626,-54.09684
2018-09-06 12:40:00+00:00,215.1831,17.88,13.6,47.84626,-54.09684
2018-09-06 12:50:00+00:00,211.1564,17.89,13.6,47.84626,-54.09684
2018-09-06 13:00:00+00:00,209.6664,17.88,13.53,47.84626,-54.09684
2018-09-06 13:10:00+00:00,208.5231,17.82,13.44,47.84626,-54.09684
2018-09-06 13:20:00+00:00,206.4364,17.8,13.6,47.84626,-54.09684
2018-09-06 13:30:00+00:00,205.0281,17.8,13.68,47.84626,-54.09684
2018-09-06 13:40:00+00:00,205.6264,17.81,13.92,47.84626,-54.09684
2018-09-06 13:50:00+00:00,206.7248,17.84,14.08,47.84626,-54.09684
2018-09-06 14:00:00+00:00,206.8481,17.8,14.24,47.84626,-54.09684
2018-09-06 14:10:00+00:00,203.9564,17.8,14.4,47.84626,-54.09684
2018-09-06 14:20:00+00:00,202.8964,17.8,14.4,47.84626,-54.09684
2018-09-06 14:30:00+00:00,206.6348,17.8,16.23,47.84626,-54.09684
2018-09-06 14:40:00+00:00,207.8798,17.8,15.6,47.84626,-54.09684
2018-09-06 14:50:00+00:00,204.8548,17.8,15.2,47.84626,-54.09684
2018-09-06 15:00:00+00:00,202.8181,17.8,14.72,47.84626,-54.09684
2018-09-06 15:10:00+00:00,206.5247,17.8,14.48,47.84626,-54.09684
2018-09-06 15:20:00+00:00,211.4881,17.72,14.64,47.84626,-54.09684
2018-09-06 15:30:00+00:00,214.7364,17.7,14.8,47.84626,-54.09684
2018-09-06 15:40:00+00:00,215.7464,17.7,14.56,47.84626,-54.09684
2018-09-06 15:50:00+00:00,220.0214,17.7,14.56,47.84626,-54.09684
2018-09-06 16:00:00+00:00,224.8798,17.7,14.32,47.84626,-54.09684
2018-09-06 16:10:00+00:00,227.7597,17.62,14.24,47.84626,-54.09684
2018-09-06 16:20:00+00:00,233.3631,17.67,14.48,47.84626,-54.09684
2018-09-06 16:30:00+00:00,238.8431,17.68,14.4,47.84626,-54.09684
2018-09-06 16:40:00+00:00,242.1231,17.7,14.48,47.84626,-54.09684
2018-09-06 16:50:00+00:00,248.8247,17.76,14.4,47.84626,-54.09684
2018-09-06 17:00:00+00:00,254.8297,17.71,14.48,47.84626,-54.09684
2018-09-06 17:10:00+00:00,257.1731,17.71,14.4,47.84626,-54.09684
2018-09-06 17:20:00+00:00,263.6014,17.74,14.48,47.84626,-54.09684
2018-09-06 17:30:00+00:00,274.7764,17.78,14.32,47.84626,-54.09684
2018-09-06 17:40:00+00:00,284.438,17.7,14.48,47.84626,-54.09684
2018-09-06 17:50:00+00:00,290.618,17.75,14.32,47.84626,-54.09684
2018-09-06 18:00:00+00:00,296.793,17.77,14.24,47.84626,-54.09684
2018-09-06 18:10:00+00:00,304.4997,17.79,14.0,47.84626,-54.09684
2018-09-06 18:20:00+00:00,311.303,17.79,14.0,47.84626,-54.09684
2018-09-06 18:30:00+00:00,318.4463,17.74,14.0,47.84626,-54.09684
2018-09-06 18:40:00+00:00,325.368,17.73,14.0,47.84626,-54.09684
2018-09-06 18:50:00+00:00,330.5229,17.72,14.0,47.84626,-54.09684
2018-09-06 19:00:00+00:00,335.3546,17.75,13.92,47.84626,-54.09684
2018-09-06 19:10:00+00:00,339.7247,17.76,13.76,47.84626,-54.09684
2018-09-06 19:20:00+00:00,348.7413,17.79,13.76,47.84626,-54.09684
2018-09-06 19:30:00+00:00,354.468,17.79,13.76,47.84626,-54.09684
2018-09-06 19:40:00+00:00,351.7596,17.8,13.76,47.84626,-54.09684
2018-09-06 19:50:00+00:00,353.543,17.8,13.68,47.84626,-54.09684
2018-09-06 20:00:00+00:00,359.1213,17.8,13.6,47.84626,-54.09684
2018-09-06 20:10:00+00:00,361.053,17.8,13.44,47.84626,-54.09684
2018-09-06 20:20:00+00:00,360.9213,17.8,13.44,47.84626,-54.09684
2018-09-06 20:30:00+00:00,366.1596,17.8,13.44,47.84626,-54.09684
2018-09-06 20:40:00+00:00,370.3345,17.8,13.44,47.84626,-54.09684
2018-09-06 20:50:00+00:00,367.9413,17.8,13.37,47.84626,-54.09684
2018-09-06 21:00:00+00:00,366.8129,17.8,13.29,47.84626,-54.09684
2018-09-06 21:10:00+00:00,371.4296,17.8,13.21,47.84626,-54.09684
2018-09-06 21:20:00+00:00,371.2146,17.8,13.21,47.84626,-54.09684
2018-09-06 21:30:00+00:00,366.0713,17.83,13.21,47.84626,-54.09684
2018-09-06 21:40:00+00:00,362.5745,17.87,13.21,47.84626,-54.09684
2018-09-06 21:50:00+00:00,358.9196,17.89,13.21,47.84626,-54.09684
2018-09-06 22:00:00+00:00,355.9113,17.89,13.13,47.84626,-54.09684
2018-09-06 22:10:00+00:00,350.1596,17.89,13.05,47.84626,-54.09684
2018-09-06 22:20:00+00:00,348.0496,17.89,13.13,47.84626,-54.09684
2018-09-06 22:30:00+00:00,344.8363,17.89,13.13,47.84626,-54.09684
2018-09-06 22:40:00+00:00,337.4696,17.89,13.13,47.84626,-54.09684
2018-09-06 22:50:00+00:00,330.5264,17.89,13.13,47.84626,-54.09684
2018-09-06 23:00:00+00:00,322.4329,17.89,13.05,47.84626,-54.09684
2018-09-06 23:10:00+00:00,317.3846,17.89,13.05,47.84626,-54.09684
2018-09-06 23:20:00+00:00,310.0213,17.9,13.05,47.84626,-54.09684
2018-09-06 23:30:00+00:00,300.808,17.9,13.05,47.84626,-54.09684
2018-09-06 23:40:00+00:00,291.6597,17.9,13.13,47.84626,-54.09684
2018-09-06 23:50:00+00:00,285.453,17.9,13.13,47.84626,-54.09684
